Orbital Elements at Epoch 2459200.5 (2020-Dec-17.0) TDB
Reference: JPL 29 (heliocentric ecliptic J2000)
Element | Value | Uncertainty (1-sigma) | Units |
e | .06954219557623258 | 3.6279e-08 | |
a | 2.557015460346956 | 1.191e-08 | au |
q | 2.379194991112058 | 9.4352e-08 | au |
i | 14.29362229104292 | 4.5522e-06 | deg |
node | 302.9469371781595 | 1.5467e-05 | deg |
peri | 282.3435344631417 | 4.004e-05 | deg |
M | 201.4548708106395 | 3.9257e-05 | deg |
tp | 2459858.231832583289 (2022-Oct-05.73183258) | 0.00016371 | TDB |
period | 1493.476721364165 4.09 | 1.0434e-05 2.857e-08 | d yr |
n | .241048283411589 | 1.6841e-09 | deg/d |
Q | 2.734835929581854 | 1.2738e-08 | au |
|
| | Orbit Determination Parameters
Additional Information
|